Regional Weather Roundup
Issued by NWS

Home | Current Version | Previous Version | Graphics & Text | Print | Product List | Glossary On
Versions: 1 2 3 4 5 6 7 8 9 10 11 12 13 14 15 16 17 18 19 20 21 22 23 24 25 26 27 28
000
ASUS45 KSLC 231010
RWRUT

UTAH REGIONAL WEATHER ROUNDUP
NATIONAL WEATHER SERVICE SALT LAKE CITY UT
400 AM MDT SAT SEP 23 2017

UTZ001>011-023>025-231100-

NORTHERN UTAH

CITY           SKY/WX    TMP DP  RH WIND       PRES   REMARKS
BRIGHAM CITY   CLEAR     38  35  85 E3        29.97F
HILL AFB       CLEAR     40  33  76 N3        29.95F
LOGAN          MOCLDY    35  34  96 CALM      29.99F FOG
OGDEN          CLEAR     39  34  82 NW7       29.95F WCI  34
SALT LAKE CITY MOCLDY    45  40  82 NW6       29.95F
TOOELE VALLEY  CLOUDY    37  36  93 SE5       29.97S WCI  34
WENDOVER       MOCLDY    41  35  79 CALM      29.99S
HEBER CITY     CLOUDY    34  32  93 CALM      29.96S
WEST JORDAN    CLEAR     39  39 100 CALM      29.96F

$$

UTZ011>015-024>027-231100-

CENTRAL/NORTHEAST UTAH

CITY           SKY/WX    TMP DP  RH WIND       PRES   REMARKS
PROVO AIRPORT  CLEAR     39  37  92 NE5       29.96S
MOAB/CANYONLAN MOCLDY    51  29  42 SW7       29.79F
DELTA          MOCLDY    36  36 100 CALM      29.96S
PRICE          PTCLDY    42  25  50 NW6       29.87S
RICHFIELD      CLOUDY    41  39  93 N5        29.96S
ROOSEVELT      MOCLDY    41  30  65 NW3       29.94S
VERNAL         CLOUDY    49  35  58 NE6       29.92S

$$

UTZ013>016-019>022-027-231100-

SOUTHERN UTAH

CITY           SKY/WX    TMP DP  RH WIND       PRES   REMARKS
BRYCE CANYON   CLEAR     24  22  91 CALM      29.94S
CEDAR CITY     CLEAR     38  36  92 N6        29.91F WCI  33
MILFORD        CLEAR     38  36  92 N12       29.93F WCI  30
ST GEORGE      MOSUNNY   53  37  54 S7        29.82S
HANKSVILLE     CLEAR     45  32  61 CALM      29.84S
KANAB          CLEAR     41  25  52 NE6G14    29.89S
BLANDING         N/A     55  37  52 SE5       29.94R

$$

REGIONAL REPORTS     COLORADO/ARIZONA

CITY           SKY/WX    TMP DP  RH WIND       PRES   REMARKS
CRAIG, CO      CLOUDY    42  36  79 CALM      29.96S
GRAND JUNCTION CLOUDY    57  30  35 N13       29.84R
RIFLE, CO      LGT RAIN  56  43  61 SE8       29.89R
MONTROSE, CO   LGT RAIN  58  40  51 W3        29.90R
CORTEZ, CO     MOCLDY    49  45  86 E7        29.88F
PAGE, AZ       CLEAR     51  22  31 SE5       29.79F
GRAND CANYON   CLEAR     26  13  57 CALM      29.89F
KINGMAN, AZ    CLEAR     44  26  49 CALM      29.78F
FLAGSTAFF, AZ  CLEAR     38  29  70 CALM      29.91F

$$

REGIONAL REPORTS    NEVADA/IDAHO/WYOMING

CITY           SKY/WX    TMP DP  RH WIND       PRES   REMARKS
LAS VEGAS, NV  CLEAR     64  28  25 N15       29.77S
ELY, NY        FOG       29  29 100 N5        29.99S VSB 1   WCI  24
ELKO, NV       PTCLDY    31  28  89 CALM      30.01F
POCATELLO, ID  PTCLDY    34  32  92 E3        30.02F
BURLEY, ID     CLEAR     35  32  88 SW5       30.00F WCI  31
EVANSTON, WY   CLOUDY    32  31  96 N6        29.98F WCI  26
ROCK SPRINGS,  CLOUDY    36  34  92 E3        30.00F
KEMMERER, WY     N/A     32  30  93 CALM      30.00S

$$




USA.gov is the U.S. government's official web portal to all federal, state and local government web resources and services.